Weather History for Arbor Vitae, WI

Change the Weather History Date:

Monday, March 3, 2014

  Actual Average Record
Temperature  
Mean Temperature -2 °F -  
Max Temperature 16 °F 32 °F 51 °F (1993)
Min Temperature -21 °F 8 °F -28 °F (1950)
Degree Days  
Heating Degree Days 68    
Moisture  
Dew Point -11 °F    
Average Humidity 61    
Maximum Humidity 81    
Minimum Humidity 38    
Precipitation  
Precipitation 0.00 in - - ()
Sea Level Pressure  
Sea Level Pressure 30.29 in    
Wind  
Wind Speed 2 mph (WSW)    
Max Wind Speed 10 mph    
Max Gust Speed 10 mph    
Visibility 8 miles    
Events Snow    
Averages and records for this station are not official NWS values.
T = Trace of Precipitation, MM = Missing Value Source: NWS Daily Summary

Daily Weather History Graph

Daily Weather History Graph

Search for Another Location

Airport:

Trip Planner

Search our weather history database for the weather conditions in past years. The results will help you decide how hot, cold, wet, or windy it might be!

Date:

Astronomy

Mar. 03, 2014 Rise Set
Actual Time 6:34 AM CST 5:48 PM CST
Civil Twilight 6:04 AM CST 6:18 PM CST
Nautical Twilight 5:29 AM CST 6:52 PM CST
Astronomical Twilight 4:55 AM CST 7:27 PM CST
Moon 7:32 AM CST (3/3) 9:03 PM CST (3/3)
Length of Visible Light 12h 14m
Length of Day
11h 14m
Waxing Crescent, 8% of the Moon is Illuminated
Mar 3
Waxing Crescent
Mar 8
First Quarter
Mar 16
Full
Mar 23
Last Quarter
Mar 30
New

Hourly Weather History & Observations

Time (CST) Temp. Windchill Dew Point Humidity Pressure Visibility Wind Dir Wind Speed Gust Speed Precip Events Conditions
12:15 AM -11.2 °F - -19.3 °F 67% 30.33 in 10.0 mi Calm Calm - N/A   Clear
12:35 AM -9.8 °F - -18.8 °F 65% 30.34 in 10.0 mi Calm Calm - N/A   Clear
12:55 AM -10.1 °F - -19.5 °F 63% 30.35 in 10.0 mi Calm Calm - N/A   Clear
1:15 AM -13.9 °F - -21.3 °F 70% 30.35 in 10.0 mi Calm Calm - N/A   Clear
1:35 AM -14.3 °F - -21.8 °F 69% 30.35 in 10.0 mi Calm Calm - N/A   Clear
1:55 AM -16.8 °F - -24.5 °F 68% 30.36 in 10.0 mi Calm Calm - N/A   Clear
2:15 AM -15.0 °F - -21.5 °F 73% 30.35 in 10.0 mi Calm Calm - N/A   Clear
2:35 AM -16.2 °F - -23.1 °F 71% 30.35 in 10.0 mi Calm Calm - N/A   Clear
2:55 AM -16.2 °F - -23.8 °F 69% 30.35 in 10.0 mi Calm Calm - N/A   Clear
3:15 AM -18.2 °F - -25.4 °F 70% 30.36 in 10.0 mi Calm Calm - N/A   Clear
3:35 AM -18.8 °F - -25.1 °F 73% 30.36 in 10.0 mi Calm Calm - N/A   Clear
3:55 AM -18.8 °F - -25.8 °F 70% 30.36 in 10.0 mi Calm Calm - N/A   Clear
4:15 AM -19.5 °F - -26.7 °F 70% 30.37 in 10.0 mi Calm Calm - N/A   Clear
4:35 AM -21.1 °F - -27.9 °F 71% 30.37 in 10.0 mi Calm Calm - N/A   Clear
4:55 AM -19.8 °F - -26.9 °F 70% 30.37 in 10.0 mi Calm Calm - N/A   Clear
5:15 AM -21.3 °F - -28.5 °F 69% 30.37 in 10.0 mi Calm Calm - N/A   Clear
5:35 AM -21.3 °F - -28.5 °F 69% 30.37 in 10.0 mi Calm Calm - N/A   Clear
5:55 AM -21.3 °F - -28.5 °F 69% 30.36 in 10.0 mi Calm Calm - N/A   Clear
6:15 AM -21.3 °F - -28.5 °F 69% 30.35 in 10.0 mi Calm Calm - N/A   Clear
6:35 AM -21.3 °F - -28.8 °F 68% 30.35 in 10.0 mi Calm Calm - N/A   Clear
6:55 AM -21.3 °F - -28.5 °F 69% 30.35 in 10.0 mi Calm Calm - N/A   Clear
7:15 AM -21.3 °F - -28.5 °F 69% 30.35 in 10.0 mi Calm Calm - N/A   Clear
7:35 AM -21.3 °F - -29.2 °F 67% 30.34 in 10.0 mi Calm Calm - N/A   Clear
7:55 AM -18.0 °F - -26.0 °F 67% 30.35 in 10.0 mi Calm Calm - N/A   Clear
8:15 AM -15.9 °F - -23.3 °F 69% 30.34 in 10.0 mi Calm Calm - N/A   Clear
8:35 AM -8.7 °F - -17.9 °F 64% 30.34 in 10.0 mi Calm Calm - N/A   Clear
8:55 AM -6.5 °F - -15.7 °F 64% 30.33 in 10.0 mi Calm Calm - N/A   Clear
9:15 AM -2.6 °F - -13.9 °F 59% 30.33 in 10.0 mi Calm Calm - N/A   Clear
9:35 AM -0.4 °F -14.7 °F -13.0 °F 55% 30.33 in 10.0 mi West 8.1 mph - N/A   Clear
9:55 AM 2.3 °F -8.8 °F -11.6 °F 52% 30.33 in 10.0 mi WSW 5.8 mph - N/A   Clear
10:15 AM 3.9 °F -8.2 °F -11.7 °F 48% 30.33 in 10.0 mi WSW 6.9 mph - N/A   Clear
10:35 AM 5.0 °F -4.1 °F -12.1 °F 45% 30.32 in 10.0 mi WNW 4.6 mph - N/A   Clear
10:55 AM 6.4 °F -3.9 °F -11.4 °F 44% 30.32 in 10.0 mi WNW 5.8 mph - N/A   Clear
11:15 AM 9.0 °F 2.4 °F -9.0 °F 44% 30.31 in 10.0 mi SSW 3.5 mph - N/A   Clear
11:35 AM 9.3 °F -1.7 °F -9.8 °F 42% 30.31 in 10.0 mi WSW 6.9 mph - N/A   Clear
11:55 AM 11.3 °F 3.3 °F -7.2 °F 43% 30.30 in 10.0 mi SW 4.6 mph - N/A   Clear
12:15 PM 11.3 °F -1.3 °F -7.8 °F 42% 30.30 in 10.0 mi West 9.2 mph - N/A   Clear
12:35 PM 11.3 °F 0.7 °F -7.8 °F 42% 30.29 in 10.0 mi West 6.9 mph - N/A   Clear
12:55 PM 12.6 °F 1.1 °F -7.1 °F 41% 30.28 in 10.0 mi WSW 8.1 mph - N/A   Scattered Clouds
1:15 PM 14.0 °F 5.1 °F -5.8 °F 41% 30.27 in 10.0 mi WSW 5.8 mph 10.4 mph N/A   Scattered Clouds
1:35 PM 14.0 °F 3.9 °F -6.5 °F 40% 30.26 in 10.0 mi WSW 6.9 mph - N/A   Scattered Clouds
1:55 PM 14.4 °F 4.3 °F -6.2 °F 40% 30.25 in 10.0 mi SW 6.9 mph - N/A   Clear
2:15 PM 16.7 °F 4.5 °F -4.4 °F 39% 30.26 in 10.0 mi West 10.4 mph - N/A   Clear
2:35 PM 16.7 °F 6.2 °F -4.4 °F 39% 30.25 in 10.0 mi West 8.1 mph - N/A   Clear
2:55 PM 16.7 °F 6.2 °F -4.0 °F 40% 30.25 in 10.0 mi WSW 8.1 mph - N/A   Scattered Clouds
3:15 PM 16.7 °F 7.2 °F -3.6 °F 41% 30.24 in 10.0 mi WSW 6.9 mph - N/A   Scattered Clouds
3:35 PM 16.7 °F 8.3 °F -4.0 °F 40% 30.24 in 10.0 mi West 5.8 mph - N/A   Scattered Clouds
3:55 PM 16.7 °F 4.5 °F -4.4 °F 39% 30.23 in 10.0 mi West 10.4 mph - N/A   Mostly Cloudy
4:15 PM 16.7 °F 6.2 °F -4.4 °F 39% 30.23 in 10.0 mi WSW 8.1 mph - N/A   Scattered Clouds
4:35 PM 14.2 °F 3.1 °F -6.3 °F 40% 30.23 in 10.0 mi SW 8.1 mph - N/A   Mostly Cloudy
4:55 PM 14.9 °F 6.1 °F -5.4 °F 40% 30.23 in 10.0 mi SW 5.8 mph - N/A   Scattered Clouds
5:15 PM 14.0 °F 5.1 °F -7.1 °F 39% 30.23 in 10.0 mi West 5.8 mph - N/A   Mostly Cloudy
5:35 PM 14.0 °F 2.9 °F -7.6 °F 38% 30.23 in 10.0 mi West 8.1 mph - N/A   Overcast
5:55 PM 14.0 °F 3.9 °F -4.5 °F 44% 30.22 in 10.0 mi WSW 6.9 mph - N/A   Overcast
6:15 PM 11.3 °F -1.3 °F 0.9 °F 63% 30.23 in 4.0 mi WSW 9.2 mph - N/A Snow Light Snow
6:35 PM 11.3 °F 1.9 °F 4.3 °F 73% 30.23 in 2.5 mi WSW 5.8 mph - N/A Snow Light Snow
6:55 PM 11.3 °F 1.9 °F 5.7 °F 78% 30.23 in 2.0 mi WSW 5.8 mph - N/A Snow Light Snow
7:15 PM 11.3 °F 3.3 °F 6.3 °F 80% 30.22 in 1.8 mi WSW 4.6 mph - N/A Snow Light Snow
7:35 PM 11.3 °F 3.3 °F 6.3 °F 80% 30.21 in 2.0 mi SW 4.6 mph - N/A Snow Light Snow
7:55 PM 11.3 °F 1.9 °F 5.9 °F 79% 30.21 in 1.5 mi WSW 5.8 mph - N/A Snow Light Snow
8:15 PM 10.2 °F 2.0 °F 5.4 °F 81% 30.21 in 1.5 mi WSW 4.6 mph - N/A Snow Light Snow
8:35 PM 9.0 °F 0.6 °F 3.9 °F 80% 30.21 in 2.0 mi WSW 4.6 mph - N/A Snow Light Snow
8:55 PM 9.0 °F 0.6 °F 4.1 °F 81% 30.21 in 1.5 mi SW 4.6 mph - N/A Snow Light Snow
9:15 PM 9.0 °F -0.9 °F 4.1 °F 81% 30.21 in 1.8 mi SW 5.8 mph - N/A Snow Light Snow
9:35 PM 9.0 °F -0.9 °F 3.9 °F 80% 30.21 in 1.5 mi WSW 5.8 mph - N/A Snow Light Snow
9:55 PM 7.7 °F -0.9 °F 2.8 °F 81% 30.21 in 1.8 mi SW 4.6 mph - N/A Snow Light Snow
10:15 PM 6.8 °F -2.0 °F 1.8 °F 80% 30.20 in 2.0 mi SW 4.6 mph - N/A Snow Light Snow
10:35 PM 6.4 °F -0.5 °F 1.4 °F 80% 30.20 in 1.8 mi SW 3.5 mph - N/A Snow Light Snow
10:55 PM 6.4 °F -2.4 °F 1.4 °F 80% 30.19 in 2.0 mi SW 4.6 mph - N/A Snow Light Snow
11:15 PM 5.9 °F -1.1 °F 1.0 °F 80% 30.18 in 2.0 mi SW 3.5 mph - N/A Snow Light Snow
11:35 PM 5.9 °F -1.1 °F 0.9 °F 80% 30.16 in 2.5 mi SW 3.5 mph - N/A Snow Light Snow
11:55 PM 5.9 °F - 1.0 °F 80% 30.16 in 4.0 mi Calm Calm - N/A Snow Light Snow